Overview Statistics Trail Chart Weather Telemetry Raw packets
 

This is the latest recevied weather packets stored in our database for station/object IU1OLT-6. If no packets are shown the sender has not sent any weather packets the latest 10 day(s).

<< 3 4 5 6 7 8 9 >>
Time Temp. Humidity Pressure Rain* Wind** Luminosity Snow
1788581215 15.56° C 71% 1014.7 hPa 0 mm - - -
1788580255 15.56° C 61% 1014.7 hPa 0 mm - - -
1788579296 16.11° C 59% 1014.9 hPa 0 mm - - -
1788578383 16.11° C 56% 1014.8 hPa 0 mm - - -
1788577471 15.56° C 59% 1014.8 hPa 0 mm - - -
1788576559 16.11° C 58% 1014.9 hPa 0 mm - - -
1788575647 16.11° C 33% 1014.9 hPa 0 mm - - -
1788574687 16.67° C 17% 1014.9 hPa 0 mm - - -
1788573728 16.67° C 18% 1015.1 hPa 0 mm - - -
1788572815 16.67° C 15% 1015 hPa 0 mm - - -
1788571904 16.67° C 15% 1015.1 hPa 0 mm - - -
1788570944 16.67° C 16% 1014.8 hPa 0 mm - - -
1788570031 16.67° C 18% 1014.8 hPa 0 mm - - -
1788569120 16.67° C 20% 1014.9 hPa 0 mm - - -
1788568207 16.67° C 20% 1014.9 hPa 0 mm - - -
1788567296 16.11° C 24% 1015.2 hPa 0 mm - - -
1788566336 15.56° C 34% 1015.3 hPa 0 mm - - -
1788565423 15.56° C 57% 1015.5 hPa 0 mm - - -
1788564512 15° C 62% 1015.5 hPa 0 mm - - -
1788563504 15° C 68% 1015.3 hPa 0 mm - - -
1788562592 15.56° C 61% 1015.5 hPa 0 mm - - -
1788561632 15.56° C 52% 1015.5 hPa 0 mm - - -
1788560672 16.11° C 56% 1015.1 hPa 0 mm - - -
1788559712 15.56° C 58% 1015.6 hPa 0 mm - - -
1788558799 15.56° C 57% 1016 hPa 0 mm - - -

* Rain latest hour (hover to see other rain measurements)
** Current wind speed in m/s (hover to see current wind gust speed)